COSMOS 2251 DEB, 37966

Orbit data source: Space-Track

COSMOS 2251 DEB, 37966 is space debris in LEO originally from a launch on Wed, 16 Jun 1993 UTC launched from the Plesetsk Missile And Space Complex (PKMTR). The debris from Iridium 33, an American commercial communications satellite, has been tracked extensively since its accidental collision with the defunct Russian satellite Cosmos 2251 in 2009. This event, occurring at high speed in low Earth orbit (LEO), generated thousands of pieces of space debris, significantly increasing the risk of further collisions. The Iridium 33 debris cloud has impacted space traffic management and orbital debris mitigation strategies, making it a subject of ongoing study in space situational awareness.

Loading next visibility...
Identifier
37966, 1993-036BPR
Orbit
LEO
Country
Flag of CISCIS
Related business
Manufacturer
Unknown
Mission
Spacecraft
Bus & Motor
Unknown
Mass
Unknown
Launch date (UTC)
1993-06-16 (32 years ago)
Launch vehicle
Unknown
Launch site
Plesetsk Missile And Space Complex (PKMTR)
Object type
Payload
Rocket body
Debris
Shape & HBR
Unknown shape, 0.1 m
Radar Cross Section
Small (<0.1 m²)

Expand to show TLE details & history
Last TLE update: 2 days ago

TLE from 2 days ago
0 COSMOS 2251 DEB
1 37966U 93036BPR 25303.43424492  .00053601  00000-0  35483-2 0  9997
2 37966  73.9774 320.2127 0006435 211.3744 148.7063 15.07045132846899
Epoch: 2025-10-30T10:25Z
TLE epoch observation values (Epoch: 2025-10-30T10:25:18.761Z)
Latitude
-0.00002°
Longitude
124.89144°
Altitude
551.737 km
Speed
7.584 km/s
True Right ascension
21h 20m 51s
True Declination
0° 00' 00"
Sunlit
Object was in daylight at epoch
Visualization orbit readout
Latitude
Unknown
Longitude
Unknown
Altitude
Unknown
Speed
Unknown
Apparent Right ascension
Unknown
Apparent Declination
Unknown
Sunlit
N/A
Visualization observer readout
Local Sidereal Time
07:32:52
Azimuth
Unknown
Elevation
Unknown
Doppler factor
Unknown
Orbital elements
Apogee altitude
547.24 km
Perigee altitude
538.333 km
Semi-major axis
6,920.923 km
Eccentricity
0.00064
Inclination
73.9774°
RAAN
320.2127°
Arg. of periapsis
211.3744°
True anomaly
148.74458°
Mean anomaly
148.7063°
Eccentric anomaly
148.72544°
Mean motion
3.76962 °/min
Orbital period
95.5 mins
BSTAR
0.0035483

Documentation

Showing up to 5 results
|